This is the latest recevied weather packets stored in our database for station/object W5MAI. If no packets are shown the sender has not sent any weather packets the latest 10 day(s).
| Time | Temp. | Humidity | Pressure | Rain* | Wind** | Luminosity | Snow |
|---|---|---|---|---|---|---|---|
| 1777827808 | 22.78° C | 43% | 1024.6 hPa | 0 mm | - | 884 W/m² | - |
| 1777827239 | 23.33° C | 43% | 1024.7 hPa | 0 mm | - | 870 W/m² | - |
| 1777826657 | 22.78° C | 49% | 1024.7 hPa | 0 mm | - | 851 W/m² | - |
| 1777826031 | 22.78° C | 42% | 1025 hPa | 0 mm | - | 823 W/m² | - |
| 1777825460 | 22.22° C | 51% | 1025 hPa | 0 mm | - | 803 W/m² | - |
| 1777824810 | 21.67° C | 50% | 1025 hPa | 0 mm | - | 777 W/m² | - |
| 1777824240 | 21.67° C | 52% | 1025.2 hPa | 0 mm | - | 751 W/m² | - |
| 1777823657 | 21.67° C | 54% | 1025.3 hPa | 0 mm | - | 726 W/m² | - |
| 1777823018 | 21.67° C | 54% | 1025.3 hPa | 0 mm | - | 694 W/m² | - |
| 1777822440 | 21.11° C | 55% | 1025.2 hPa | 0 mm | - | 671 W/m² | - |
| 1777821808 | 21.11° C | 55% | 1025.1 hPa | 0 mm | - | 643 W/m² | - |
| 1777821229 | 20° C | 59% | 1025.2 hPa | 0 mm | - | 606 W/m² | - |
| 1777820658 | 18.89° C | 71% | 1025.2 hPa | 0 mm | - | 508 W/m² | - |
| 1777820025 | 18.33° C | 74% | 1025.3 hPa | 0 mm | - | 429 W/m² | - |
| 1777819439 | 17.22° C | 75% | 1025.2 hPa | 0 mm | - | 403 W/m² | - |
| 1777818808 | 16.67° C | 77% | 1025.3 hPa | 0 mm | - | 404 W/m² | - |
| 1777818227 | 16.11° C | 81% | 1025.2 hPa | 0 mm | - | 378 W/m² | - |
| 1777817658 | 15.56° C | 79% | 1025 hPa | 0 mm | - | 288 W/m² | - |
| 1777817013 | 15.56° C | 81% | 1025 hPa | 0 mm | - | 246 W/m² | - |
| 1777816456 | 15° C | 83% | 1025 hPa | 0 mm | - | 237 W/m² | - |
| 1777815855 | 13.89° C | 86% | 1024.9 hPa | 0 mm | - | 229 W/m² | - |
| 1777815207 | 13.33° C | 89% | 1024.8 hPa | 0 mm | - | 199 W/m² | - |
| 1777814623 | 12.78° C | 92% | 1024.8 hPa | 0 mm | - | 174 W/m² | - |
| 1777814028 | 11.67° C | 95% | 1024.7 hPa | 0 mm | - | 144 W/m² | - |
| 1777813435 | 11.11° C | 96% | 1024.5 hPa | 0 mm | - | 105 W/m² | - |
* Rain latest hour (hover to see other rain measurements)
** Current wind speed in m/s (hover to see current wind gust speed)